Back to catalog

STARLINK-35872

AliveCommunicationsVLEO
NORAD 66580·PAYLOAD·🇺🇸 United States

Launched Nov 21, 2025 from Cape Canaveral Space Force Station

Loading…

Next Passes (next 24 hours)

TLE

FreshSource: CelesTrak SupGP

Epoch: Sep 14, 2026, 15:19 UTC

1 66580C 25268Z   26257.63868056 -.00036410  00000+0 -13191-2 0  2571
2 66580  43.0039 359.8438 0001813 285.2750 253.6631 15.27587393    15

Track STARLINK-35872 in real time with AllMySat

Download on the App Store